Tracking 31030 objects as of 17-Jul-2025
HD Live streaming from Space Station
objects crossing your sky now

DELTA 1 DEB

Track DELTA 1 DEB now!
10-day predictions


NORAD ID: 7068
Int'l Code: 1973-086BL
Perigee: 1,176.8 km
Apogee: 1,507.4 km
Inclination: 102.3 °
Period: 112.4 minutes
Semi major axis: 7713 km
RCS: 0.0563 m2 (small)
Launch date: November 6, 1973
Source: United States (US)
Launch site: AIR FORCE WESTERN TEST RANGE (AFWTR)

Note: This is SATELLITE DEBRIS
Your satellite tracking list
Your tracking list is empty




NASA's NSSDC Master Catalog

Two Line Element Set (TLE):
1 07068U 73086BL  25197.32935635 -.00000060  00000-0 -35459-4 0  9993
2 07068 102.3394 142.2974 0214314 112.1042  40.5857 12.81630400415701
Source of the keplerian elements: AFSPC